[[{"header":{"parameterUnit":"m.s-1","parameterCategory":1,"la1":30.2991,"la2":30.254,"lo1":-89.0895,"lo2":-89.0444,"dx":0.0017,"dy":0.0017,"nx":28,"ny":28,"refTime":"2023-02-12T09:00:00:Z","depth":0,"parameterNumber":2,"parameterNumberName":"U-component_of_WINDS"},"data":[0,0,0,0,0,0,0,0,0,0,0,0,0,0,0,0,0,0,0,0,0,0,0,0,0,0,0,0,0,0,0,0,0,0,0,0,0,0,0,0,0,0,0,0,0,0,0,0,0,0,0,0,0,0,0,0,0,0,1.0366,1.0365,0,1.0335,1.0334,1.0334,1.0305,1.0305,1.0305,1.0304,1.0271,1.027,1.027,0,0,0,0,0,0,0,0,0,0,0,0,0,1.0399,1.0398,1.0366,1.0365,1.0365,1.0335,1.0334,1.0334,1.0305,1.0305,1.0304,1.0304,1.0271,1.027,1.027,0,0,0,0,0,0,0,0,0,0,0,0,0,1.0378,1.0398,1.0366,1.0347,1.0345,1.0335,1.0334,1.0334,1.0305,1.0305,1.0304,1.0304,1.0271,1.027,1.027,1.0275,0,0,1.0267,1.0267,0,0,0,0,0,0,0,0,1.0379,1.0377,1.035,1.0348,1.0346,1.0323,1.0334,1.0314,1.0306,1.032,1.0304,1.0304,1.0289,1.0286,1.0282,1.0273,1.0272,1.0267,1.0266,1.0266,1.0266,0,0,0,0,0,0,0,1.038,1.0378,1.0353,1.035,1.0347,1.034,1.0336,1.033,1.0308,1.0319,1.0317,1.0314,1.0287,1.0282,1.0281,1.0271,1.0267,1.0266,1.0266,1.0265,1.0266,1.0266,0,0,0,0,0,0,1.0385,1.0379,1.0354,1.0352,1.0362,1.034,1.0336,1.0331,1.0308,1.0304,1.0314,1.0313,1.0284,1.0282,1.0279,1.0284,1.0266,1.0265,1.0265,1.0265,1.0266,1.0267,0,0,0,0,0,0,1.0386,1.0383,1.0356,1.0365,1.0361,1.034,1.0335,1.0331,1.0326,1.0304,1.03,1.0313,1.0284,1.028,1.0276,1.0282,1.0265,1.0264,1.0265,1.0266,1.0266,1.0293,0,0,0,0,0,0,1.0387,1.0384,1.0386,1.0365,1.0361,1.0354,1.0335,1.0331,1.0325,1.0322,1.0302,1.0298,1.0283,1.0278,1.0275,1.0281,1.0263,1.0264,1.0265,1.0266,1.0292,1.0295,1.0297,0,0,0,0,0,1.0388,1.0394,1.0386,1.0383,1.0363,1.0354,1.0351,1.0334,1.0325,1.0327,1.0313,1.0299,1.0282,1.0278,1.0275,1.028,1.0264,1.0265,1.0266,1.029,1.0294,1.0297,0,0,0,0,0,0,1.0414,1.0391,1.0382,1.0381,1.037,1.0349,1.0351,1.0338,1.0329,1.0327,1.0305,1.0301,1.0299,1.0289,1.0284,1.0284,1.0271,1.0272,1.029,1.0294,1.0297,1.0299,1.0263,0,0,0,0,0,1.042,1.0415,1.0395,1.0396,1.0391,1.0372,1.0368,1.0355,1.0343,1.0337,1.0323,1.0311,1.0303,1.0298,1.0289,1.029,1.0285,1.0293,1.0295,1.0298,1.0299,1.0298,1.0301,1.0271,1.0271,1.027,0,0,1.0432,1.0418,1.0417,1.0401,1.0391,1.0386,1.0368,1.0364,1.036,1.0336,1.0332,1.0321,1.0306,1.0305,1.0303,1.0296,1.0306,1.0299,1.0302,1.0301,1.03,1.0303,1.0305,1.0271,1.0271,1.0271,0,0,1.0451,1.044,1.044,1.0431,1.0416,1.0403,1.0403,1.0385,1.0377,1.0372,1.0355,1.035,1.0336,1.0326,1.0319,1.0336,1.0322,1.0333,1.0348,1.0348,1.0351,1.0353,1.0358,1.036,1.0334,1.0334,1.0334,0,1.0467,1.0459,1.0442,1.0438,1.0432,1.0412,1.0412,1.0403,1.0386,1.0382,1.0375,1.0358,1.0346,1.0342,1.0346,1.0342,1.0341,1.0335,1.0352,1.0354,1.0355,1.036,1.0362,1.0336,1.0336,1.0335,1.0335,0,1.048,1.0475,1.0476,1.0461,1.0455,1.0454,1.0436,1.0432,1.0421,1.0409,1.0404,1.039,1.0378,1.0376,1.0365,1.0371,1.0367,1.0356,1.0342,1.036,1.0364,1.0366,1.0338,1.0337,1.0337,1.0336,0,0,1.0513,1.0489,1.049,1.0483,1.0465,1.0461,1.0459,1.0448,1.0445,1.0434,1.0431,1.0421,1.0411,1.0403,1.039,1.0391,1.0404,1.038,1.0379,1.0384,1.0409,1.0417,1.042,1.0396,1.0396,1.0396,1.0411,0,1.0528,1.0523,1.0508,1.0507,1.0502,1.0483,1.0481,1.047,1.0459,1.0453,1.0441,1.0434,1.0421,1.0417,1.0416,1.0403,1.0409,1.0402,1.0392,1.0392,1.0396,1.0422,1.043,1.0444,1.0412,1.0412,1.0413,0,1.0545,1.0536,1.0535,1.0518,1.0516,1.0514,1.0503,1.0498,1.0485,1.0477,1.0469,1.0456,1.0452,1.044,1.0434,1.0429,1.0425,1.0418,1.0418,1.0416,1.0403,1.042,1.0448,1.045,1.0415,1.0415,1.0415,0,1.0569,1.0557,1.0555,1.0549,1.053,1.0529,1.0521,1.0508,1.0502,1.0493,1.0489,1.0479,1.0473,1.0466,1.045,1.0443,1.0446,1.0432,1.0438,1.0439,1.0439,1.0439,1.0466,1.0437,1.0437,1.0437,1.0437,0,1.0587,1.0587,1.0565,1.0564,1.0563,1.0546,1.0545,1.0535,1.0524,1.052,1.0503,1.05,1.0479,1.0473,1.0461,1.0458,1.0455,1.0449,1.0445,1.045,1.045,1.0446,1.0444,1.0438,1.0438,1.0438,1.0437,0,1.0613,1.0599,1.0595,1.0577,1.0573,1.0573,1.0558,1.0556,1.0544,1.0539,1.0537,1.0519,1.0511,1.0495,1.0483,1.0474,1.0474,1.0468,1.0478,1.0476,1.0483,1.0482,1.0507,1.0509,1.048,1.048,1.048,0,1.0626,1.0625,1.0608,1.0604,1.0597,1.0591,1.0586,1.0569,1.0564,1.055,1.055,1.0541,1.0533,1.0521,1.0507,1.0497,1.0491,1.05,1.0489,1.0494,1.049,1.049,1.049,1.0503,1.0503,1.0503,1.0504,0,1.0649,1.0642,1.0635,1.0626,1.062,1.0612,1.0603,1.0601,1.0582,1.0577,1.057,1.0564,1.0552,1.0543,1.0531,1.0522,1.051,1.0507,1.0508,1.0512,1.0518,1.0515,1.0484,1.0507,1.0506,1.0506,1.0506,1.0506,1.0668,1.0667,1.0655,1.0648,1.0639,1.0631,1.0629,1.0617,1.0611,1.06,1.059,1.0584,1.0571,1.0554,1.0547,1.0541,1.0534,1.0536,1.0536,1.0536,1.0538,1.052,1.0539,1.0538,1.0538,1.0538,1.0538,0,1.069,1.0681,1.0675,1.0664,1.0658,1.0648,1.0637,1.0633,1.0628,1.0618,1.061,1.0602,1.0593,1.0579,1.0569,1.0567,1.0561,1.0565,1.0565,1.0563,1.0544,1.0544,1.057,1.057,1.057,1.057,1.057,1.057,1.0701,1.0698,1.069,1.0683,1.0674,1.0668,1.0663,1.0655,1.0647,1.0638,1.0632,1.0623,1.061,1.06,1.0592,1.0588,1.0585,1.059,1.0584,1.0567,1.0564,1.0561,1.0561,1.059,1.059,1.0603,1.0603,1.0603]},{"header":{"parameterUnit":"m.s-1","parameterCategory":1,"la1":30.2991,"la2":30.254,"lo1":-89.0895,"lo2":-89.0444,"dx":0.0017,"dy":0.0017,"nx":28,"ny":28,"refTime":"2023-02-12T09:00:00:Z","depth":0,"parameterNumber":3,"parameterNumberName":"V-component_of_WINDS"},"data":[0,0,0,0,0,0,0,0,0,0,0,0,0,0,0,0,0,0,0,0,0,0,0,0,0,0,0,0,0,0,0,0,0,0,0,0,0,0,0,0,0,0,0,0,0,0,0,0,0,0,0,0,0,0,0,0,0,0,-2.9532,-2.9534,0,-2.9714,-2.9716,-2.9719,-2.9714,-2.9712,-2.9709,-2.9707,-2.9892,-2.9899,-2.9907,0,0,0,0,0,0,0,0,0,0,0,0,0,-2.9179,-2.9186,-2.9532,-2.9534,-2.9536,-2.9714,-2.9717,-2.9719,-2.9714,-2.9711,-2.9708,-2.9706,-2.989,-2.9899,-2.9907,0,0,0,0,0,0,0,0,0,0,0,0,0,-2.9344,-2.9188,-2.9531,-2.9556,-2.956,-2.9714,-2.9717,-2.972,-2.9715,-2.9711,-2.9708,-2.9704,-2.9887,-2.9898,-2.9908,-3.005,0,0,-2.9942,-2.9946,0,0,0,0,0,0,0,0,-2.9335,-2.9357,-2.955,-2.9554,-2.9559,-2.9688,-2.966,-2.983,-2.9716,-2.9656,-2.9707,-2.9702,-2.9827,-2.9843,-2.9885,-3.0059,-3.0067,-2.9943,-2.9949,-2.9954,-2.9957,0,0,0,0,0,0,0,-2.9323,-2.9349,-2.9604,-2.9553,-2.9558,-2.9557,-2.9577,-2.9693,-2.976,-2.9661,-2.9661,-2.9683,-2.9829,-2.9875,-2.9889,-3.0069,-2.9942,-2.9952,-2.9959,-2.9963,-3.037,-3.0374,0,0,0,0,0,0,-2.9307,-2.934,-2.9598,-2.9609,-2.9435,-2.9567,-2.9588,-2.965,-2.9759,-2.9772,-2.9686,-2.9682,-2.9858,-2.9877,-2.9896,-3.007,-2.9954,-2.9964,-2.997,-3.0366,-3.0371,-3.0376,0,0,0,0,0,0,-2.9299,-2.933,-2.9591,-2.9475,-2.9508,-2.9577,-2.9646,-2.9656,-2.9701,-2.9778,-2.979,-2.972,-2.9856,-2.9881,-3.0012,-3.0076,-2.9969,-2.9979,-3.0361,-3.0367,-3.0373,-3.0419,0,0,0,0,0,0,-2.9289,-2.9327,-2.9382,-2.9476,-2.9514,-2.9704,-2.965,-2.9662,-2.972,-2.9717,-2.9813,-2.9825,-2.9855,-2.9996,-3.0023,-3.009,-2.9987,-3.0355,-3.0364,-3.0371,-3.0412,-3.0426,-3.0438,0,0,0,0,0,-2.9277,-2.9387,-2.9385,-2.9416,-2.9584,-2.9708,-2.973,-2.9762,-2.9725,-2.9781,-2.983,-2.9822,-3.0065,-3.001,-3.004,-3.0111,-3.0351,-3.0361,-3.0371,-3.0406,-3.0423,-3.0438,0,0,0,0,0,0,-2.9298,-2.94,-2.9398,-2.9542,-2.9617,-2.9707,-2.9778,-2.9779,-2.9864,-2.9858,-2.9893,-2.9915,-3.0047,-3.0092,-3.0028,-3.0254,-3.0204,-3.022,-3.022,-3.0237,-3.025,-3.0237,-2.9996,0,0,0,0,0,-2.9319,-2.9412,-2.9496,-2.9615,-2.9652,-2.9709,-2.9764,-2.9782,-2.986,-2.9892,-2.9951,-3.0027,-3.012,-3.0181,-3.0271,-3.0418,-3.044,-3.0482,-3.0495,-3.0505,-3.0519,-3.0602,-3.0622,-3.0407,-3.0407,-3.0407,0,0,-2.9364,-2.9431,-2.9488,-2.9621,-2.968,-2.9776,-2.9735,-2.9837,-2.9909,-2.9907,-3.0036,-3.0081,-3.0169,-3.0309,-3.0374,-3.0351,-3.0583,-3.0518,-3.0525,-3.0534,-3.0614,-3.0634,-3.0652,-3.0414,-3.0413,-3.0412,0,0,-2.9496,-2.9555,-2.9662,-2.9723,-2.9814,-2.9851,-2.9877,-2.9968,-2.9998,-3.0128,-3.0129,-3.0214,-3.0374,-3.0437,-3.049,-3.0646,-3.0642,-3.0674,-3.0743,-3.0823,-3.084,-3.0855,-3.0912,-3.0932,-3.0688,-3.0688,-3.0688,0,-2.954,-2.9684,-2.9716,-2.982,-2.9878,-2.9882,-2.999,-3.0048,-3.0164,-3.0204,-3.0177,-3.0379,-3.0438,-3.0593,-3.0632,-3.0674,-3.0705,-3.0664,-3.0835,-3.085,-3.0865,-3.092,-3.0941,-3.0691,-3.0691,-3.069,-3.069,0,-2.9735,-2.9835,-2.991,-3.0022,-3.009,-3.0195,-3.0243,-3.0307,-3.032,-3.036,-3.0492,-3.0563,-3.0668,-3.0706,-3.0719,-3.0865,-3.0848,-3.0827,-3.0777,-3.0888,-3.094,-3.0961,-3.0696,-3.0695,-3.0694,-3.0693,0,0,-2.9884,-3.0014,-3.0041,-3.0093,-3.0195,-3.0273,-3.0378,-3.0482,-3.0537,-3.0617,-3.0707,-3.0843,-3.0825,-3.0885,-3.0905,-3.0975,-3.1096,-3.0946,-3.0948,-3.0972,-3.1262,-3.1277,-3.1301,-3.1094,-3.1098,-3.1101,-3.1255,0,-3.0027,-3.0215,-3.0247,-3.0412,-3.0505,-3.0511,-3.0603,-3.0675,-3.0716,-3.0801,-3.0845,-3.0942,-3.091,-3.0947,-3.1016,-3.1066,-3.1154,-3.1055,-3.1178,-3.1182,-3.1157,-3.1328,-3.1345,-3.1486,-3.1275,-3.1279,-3.1281,0,-3.0218,-3.0305,-3.0479,-3.0569,-3.0609,-3.0692,-3.079,-3.0871,-3.0954,-3.0978,-3.1046,-3.1058,-3.1168,-3.1113,-3.1266,-3.1198,-3.125,-3.1282,-3.1289,-3.1302,-3.1239,-3.1347,-3.1532,-3.1554,-3.1313,-3.1311,-3.1308,0,-3.0311,-3.0471,-3.0596,-3.064,-3.0748,-3.0806,-3.0854,-3.0933,-3.0993,-3.1079,-3.1119,-3.1216,-3.127,-3.1345,-3.1383,-3.1339,-3.1534,-3.1481,-3.1558,-3.1557,-3.1599,-3.1596,-3.1796,-3.1631,-3.1631,-3.163,-3.163,0,-3.0468,-3.0575,-3.0639,-3.0716,-3.0836,-3.0873,-3.099,-3.1037,-3.1107,-3.1194,-3.1204,-3.1285,-3.133,-3.1418,-3.1448,-3.1571,-3.1595,-3.1618,-3.1625,-3.1618,-3.1615,-3.1653,-3.1645,-3.1636,-3.1635,-3.1634,-3.1633,0,-3.0592,-3.064,-3.0777,-3.0868,-3.0894,-3.0979,-3.1057,-3.1132,-3.1173,-3.1282,-3.131,-3.1373,-3.1477,-3.1523,-3.165,-3.1671,-3.1812,-3.1811,-3.1784,-3.1787,-3.1861,-3.1854,-3.2094,-3.2128,-3.1939,-3.1941,-3.1942,0,-3.0689,-3.0772,-3.0873,-3.0932,-3.0981,-3.1076,-3.1138,-3.1177,-3.1242,-3.1343,-3.1406,-3.151,-3.1596,-3.1762,-3.1819,-3.1917,-3.192,-3.1997,-3.1934,-3.1925,-3.1923,-3.1918,-3.1927,-3.2009,-3.201,-3.2012,-3.2013,0,-3.0857,-3.0877,-3.0967,-3.1066,-3.114,-3.1219,-3.1297,-3.1344,-3.1395,-3.1467,-3.1574,-3.1641,-3.1772,-3.1876,-3.1978,-3.2027,-3.2029,-3.2032,-3.2056,-3.205,-3.2031,-3.2044,-3.1817,-3.2027,-3.2026,-3.2025,-3.2024,-3.2023,-3.0972,-3.1046,-3.1129,-3.1229,-3.1292,-3.1364,-3.144,-3.149,-3.158,-3.1691,-3.1708,-3.1822,-3.1904,-3.2041,-3.2094,-3.2184,-3.2165,-3.2198,-3.2207,-3.2215,-3.222,-3.2016,-3.2203,-3.2202,-3.2202,-3.2202,-3.2201,0,-3.1142,-3.1196,-3.1287,-3.1396,-3.1475,-3.147,-3.1556,-3.1623,-3.1723,-3.1799,-3.1884,-3.2007,-3.2108,-3.2174,-3.2276,-3.2336,-3.234,-3.2361,-3.2358,-3.237,-3.2231,-3.2201,-3.2357,-3.2357,-3.2357,-3.2357,-3.2357,-3.2357,-3.1239,-3.1365,-3.1395,-3.1552,-3.1605,-3.1717,-3.1767,-3.1834,-3.1895,-3.2033,-3.2117,-3.216,-3.2232,-3.234,-3.2433,-3.2449,-3.2487,-3.251,-3.2526,-3.2395,-3.2379,-3.2364,-3.2336,-3.2518,-3.2518,-3.2658,-3.2659,-3.266]}]]